Wind_Speed
20 17 23 26 24 20 15 7 4 10 10 13 14 15 17 19 20 23 30 29 25 30 33 34 34 33 19 21 26 28 27 30 33 34 37 45 48 49 48 46 45 45 41 36
20 20 31 32 28 22 17 13 10 12 9 13 17 18 17 19 18 25 30 35 29 32 35 35 32 26 20 24 26 27 31 35 35 38 43 48 50 47 45 44 43 42 39 38
23 23 30 31 28 19 23 18 15 14 11 15 19 22 21 22 21 27 24 27 25 32 33 30 30 25 23 25 29 31 35 36 37 42 47 49 47 46 44 45 46 46 42 39
23 15 20 25 23 23 25 11 12 14 15 17 21 24 23 26 27 28 23 31 27 35 34 30 32 26 25 26 30 34 37 38 41 45 46 46 44 43 43 45 46 46 46 40
22 21 20 22 20 17 17 15 13 16 18 17 17 24 24 26 29 29 26 28 31 32 33 31 29 26 24 28 30 35 39 40 42 44 44 43 43 43 44 46 45 46 48 44
25 20 21 20 20 15 13 12 14 19 20 21 22 24 24 27 29 26 27 31 31 32 30 31 29 24 26 29 33 38 41 41 43 44 44 41 41 42 44 45 45 48 48 40
24 18 20 21 20 18 11 14 16 17 19 21 25 29 29 29 25 28 32 33 34 29 30 31 26 24 28 30 36 41 41 42 43 44 44 43 42 43 45 44 45 48 46 36
25 19 19 16 13 9 8 12 13 18 22 24 24 25 26 25 25 27 29 33 30 29 32 32 23 24 29 34 38 40 41 43 44 45 45 44 44 46 47 43 44 47 44 38
25 21 19 19 15 10 10 10 13 16 18 20 23 21 22 24 26 22 28 28 28 30 33 31 23 27 32 35 38 40 41 43 44 46 46 45 44 44 45 42 43 45 46 39
26 24 20 20 13 12 13 16 16 19 19 19 21 23 22 23 23 24 25 26 27 30 32 28 27 30 32 36 38 40 42 43 44 46 48 46 45 44 42 40 41 42 45 42
25 21 21 18 16 15 17 15 16 16 17 20 24 22 24 25 24 24 24 25 27 30 30 27 28 29 32 35 39 40 42 43 44 46 48 46 46 44 41 38 38 41 41 45
22 26 21 19 18 18 17 15 15 18 20 22 25 25 28 26 23 21 22 24 26 30 28 26 28 27 30 36 40 40 41 43 43 46 48 48 45 44 38 37 36 39 40 41
24 25 23 22 20 19 20 20 20 23 23 25 28 28 27 22 21 20 22 23 25 30 26 26 27 28 30 34 40 39 41 42 42 45 47 48 46 41 35 35 38 37 38 38
26 27 25 23 22 19 19 19 21 22 24 26 25 26 25 21 21 20 22 24 26 29 25 24 27 27 30 33 39 38 40 40 41 43 46 49 46 38 32 35 39 36 36 36
29 28 28 25 24 21 20 20 20 21 24 23 23 22 20 20 20 21 23 25 26 27 24 23 26 27 28 33 37 38 38 38 39 41 44 48 49 33 30 34 37 36 34 35
25 25 26 24 19 16 16 17 19 20 19 19 18 18 20 19 18 20 23 24 24 26 24 22 26 25 28 33 35 36 36 36 38 40 43 47 48 31 29 33 36 36 36 33
23 24 21 14 11 12 12 14 16 16 16 16 16 17 18 17 18 20 23 23 24 26 24 22 24 27 29 33 34 35 33 35 35 37 41 44 44 35 31 32 34 36 36 36
24 21 14 9 10 11 13 13 15 15 15 15 14 15 16 16 18 21 24 23 24 25 25 23 24 27 30 31 32 32 31 33 33 34 37 39 41 36 36 32 32 32 34 34
19 18 18 12 14 14 12 14 14 15 16 13 14 15 15 16 19 21 24 23 24 25 25 23 23 26 28 30 31 30 30 31 31 31 34 36 39 37 35 34 30 31 31 32
22 20 19 16 16 17 14 16 14 14 15 16 14 14 15 16 19 20 24 23 24 24 23 22 23 25 27 28 29 29 29 30 30 30 32 34 35 37 37 35 31 26 28 30
14 22 17 22 19 16 13 13 17 18 14 13 12 14 14 16 18 20 22 23 23 23 23 23 23 24 25 26 27 28 29 30 30 30 31 32 34 34 35 36 35 32 27 27
16 19 22 19 18 16 17 19 19 17 15 13 12 13 14 15 17 19 22 22 22 22 23 24 24 24 23 24 25 27 28 28 29 30 29 30 32 33 34 35 35 35 33 28
23 22 22 24 21 22 20 21 19 17 14 12 12 12 14 15 15 17 20 21 21 22 24 24 24 23 22 21 24 25 27 28 29 30 30 30 29 30 32 34 35 35 35 33
27 23 25 23 22 20 18 17 18 16 13 12 11 12 14 15 15 16 19 20 21 22 25 24 24 23 21 21 23 24 25 27 28 28 29 29 30 30 29 29 31 33 33 33
26 24 25 23 23 22 22 22 19 16 14 12 11 12 14 14 14 16 18 20 20 22 24 25 25 25 23 22 22 23 24 25 27 28 28 29 29 29 29 28 28 30 31 31
20 25 26 24 24 25 22 19 17 17 14 12 11 13 14 14 15 16 18 20 21 21 23 24 26 25 24 23 23 24 24 25 25 26 28 29 30 30 29 29 27 26 28 28
Wind_Direction
209 203 185 179 184 201 217 242 259 289 311 322 319 340 357 346 333 329 324 328 343 337 346 338 340 336 334 331 328 328 330 328 327 328 331 335 332 331 330 327 324 319 310 302
204 192 186 188 192 202 212 218 240 267 292 308 314 325 336 334 336 334 328 328 339 335 338 333 335 332 325 327 330 330 330 333 332 336 337 339 340 338 337 335 332 330 322 301
205 211 201 208 210 213 217 230 245 270 289 299 308 313 323 327 325 327 334 314 327 335 332 331 333 328 331 331 332 333 335 337 339 342 344 344 344 343 344 341 339 335 328 321
205 217 222 218 213 221 229 239 251 269 279 299 300 300 308 317 320 326 328 321 326 332 332 331 337 333 335 332 337 337 339 342 346 345 344 346 346 342 339 339 336 333 331 322
201 215 219 207 216 230 231 234 247 265 280 296 309 305 312 314 318 327 322 319 322 325 326 336 342 338 333 338 341 342 342 344 344 344 342 345 343 345 342 340 340 338 335 326
207 216 218 219 223 237 244 261 275 274 274 285 298 302 309 314 319 326 327 317 319 322 330 341 338 336 343 342 340 344 345 344 342 341 341 342 342 343 344 343 343 341 339 333
216 219 223 224 236 237 254 273 282 289 288 293 296 299 302 311 323 327 323 314 320 327 337 339 333 336 343 342 345 346 345 343 341 341 340 341 341 341 340 343 347 346 347 342
204 206 224 213 227 232 276 272 284 291 288 286 293 302 313 321 326 321 312 312 326 332 339 334 330 335 345 346 345 346 344 343 343 341 341 341 342 341 340 345 349 351 350 345
201 211 214 223 218 227 255 252 283 298 289 285 300 310 323 327 314 309 302 323 332 335 337 339 339 345 347 345 346 344 345 345 344 342 343 344 343 343 345 349 352 356 356 351
207 216 226 232 237 235 255 262 286 296 300 302 302 311 323 320 307 307 325 332 333 335 339 341 348 348 345 346 345 344 347 347 345 345 348 348 345 346 350 353 356 359 1 360
211 221 227 232 233 240 255 267 292 317 320 311 308 318 323 316 314 322 327 335 333 337 340 342 348 346 346 346 343 343 348 347 346 349 352 352 349 351 355 357 1 3 4 7
219 233 221 226 232 249 256 274 287 304 313 315 317 318 321 316 316 320 332 331 335 339 342 344 344 346 346 347 343 346 348 347 348 352 355 355 354 357 359 2 4 4 7 10
219 228 227 237 247 260 273 282 285 297 306 307 303 309 315 316 313 324 332 331 338 343 340 342 343 343 346 345 346 348 348 348 350 353 356 359 360 1 3 5 7 6 8 12
215 227 239 248 256 263 272 279 284 293 301 299 301 309 312 316 318 326 332 335 340 341 336 342 342 341 343 341 346 350 348 350 353 354 357 0 3 3 7 6 8 10 11 13
223 241 249 264 269 278 281 284 291 298 297 297 304 309 311 315 320 329 338 337 337 340 333 338 342 343 342 341 348 350 351 352 354 356 358 2 4 9 12 10 12 14 12 14
235 243 252 263 271 275 288 298 301 288 290 300 304 310 312 313 320 331 338 335 334 340 339 333 342 344 343 343 348 351 351 352 355 356 359 4 8 11 13 13 15 17 16 13
236 234 254 245 255 282 300 299 288 286 292 302 314 309 306 312 325 334 339 332 333 340 343 335 340 342 342 341 346 352 351 352 355 357 1 6 10 12 9 12 15 18 20 20
235 229 234 228 257 296 303 291 290 295 299 307 308 299 306 319 330 337 337 331 335 342 346 340 336 338 340 340 346 350 350 352 357 359 1 7 10 11 13 10 14 17 20 22
219 234 246 271 265 291 296 286 296 301 299 306 301 307 315 326 330 338 335 332 336 344 348 345 337 333 339 340 346 349 350 352 358 0 1 6 10 11 11 13 12 12 17 21
233 235 248 263 276 286 284 286 289 299 288 299 307 312 315 324 328 340 334 333 338 343 344 345 341 335 339 341 345 348 351 353 358 0 360 4 8 12 12 11 13 9 14 18
252 239 258 259 271 272 274 288 284 293 286 295 300 307 312 322 327 337 335 334 337 339 341 345 341 337 338 341 346 350 351 356 358 359 360 0 3 8 13 13 11 10 11 14
245 260 266 263 260 261 273 287 284 283 286 289 296 304 308 317 328 334 337 335 336 337 340 344 340 338 337 341 347 352 354 358 359 360 360 358 0 3 7 12 14 13 12 11
261 257 254 258 266 271 276 283 284 287 284 281 293 298 302 314 326 332 334 336 336 337 341 343 341 338 336 342 348 351 354 355 359 360 360 359 358 360 5 7 9 12 13 12
247 256 258 264 267 275 275 275 278 277 280 279 286 297 301 312 322 329 331 336 336 337 339 341 341 339 337 341 346 351 355 353 355 358 360 358 358 357 358 6 6 7 11 12
252 250 253 257 267 273 273 272 278 275 268 276 284 294 298 309 318 326 329 334 335 335 337 338 341 344 340 339 343 347 350 350 351 353 354 356 356 354 353 357 2 2 5 11
247 248 246 252 265 270 276 273 272 273 268 272 283 291 300 309 317 324 326 330 334 335 335 337 340 344 344 342 344 347 348 346 350 352 352 355 355 352 350 350 354 355 357 1
Height
5881 5883 5884 5887 5888 5889 5890 5890 5889 5887 5886 5885 5884 5883 5881 5882 5880 5877 5871 5867 5864 5860 5855 5849 5845 5841 5838 5834 5829 5824 5818 5812 5806 5799 5791 5782 5772 5761 5749 5740 5731 5722 5715 5711
5879 5881 5882 5883 5885 5888 5889 5890 5890 5889 5887 5886 5884 5882 5881 5880 5878 5874 5869 5865 5861 5857 5853 5848 5844 5839 5835 5830 5825 5819 5812 5805 5797 5789 5780 5771 5761 5751 5742 5733 5723 5714 5706 5700
5876 5878 5880 5881 5883 5887 5889 5890 5889 5887 5885 5883 5882 5879 5877 5876 5875 5873 5869 5864 5860 5856 5851 5846 5842 5835 5830 5824 5819 5812 5804 5797 5789 5779 5769 5760 5750 5740 5732 5723 5714 5704 5696 5687
5874 5875 5878 5880 5883 5885 5886 5887 5887 5884 5882 5881 5880 5877 5876 5873 5872 5870 5867 5862 5855 5852 5847 5843 5836 5829 5824 5819 5812 5805 5798 5790 5781 5772 5763 5754 5746 5738 5728 5718 5707 5697 5686 5678
5871 5873 5877 5881 5882 5883 5883 5883 5883 5881 5880 5878 5877 5873 5872 5871 5868 5867 5863 5857 5851 5848 5844 5837 5830 5825 5821 5814 5807 5801 5793 5785 5777 5769 5760 5750 5740 5730 5721 5711 5700 5690 5678 5667
5869 5871 5875 5879 5879 5880 5880 5879 5879 5877 5876 5876 5875 5873 5871 5869 5867 5865 5860 5852 5849 5846 5839 5832 5827 5822 5815 5810 5804 5797 5789 5782 5775 5767 5757 5747 5737 5727 5716 5705 5694 5683 5671 5659
5867 5871 5874 5876 5876 5876 5876 5876 5875 5874 5872 5873 5871 5869 5869 5867 5863 5860 5855 5849 5846 5841 5834 5828 5822 5817 5812 5806 5799 5792 5786 5779 5772 5762 5752 5742 5732 5722 5711 5700 5689 5676 5664 5654
5865 5870 5872 5872 5873 5874 5873 5874 5873 5871 5870 5869 5868 5867 5867 5863 5860 5855 5849 5845 5842 5835 5830 5824 5818 5813 5807 5801 5796 5789 5783 5776 5767 5758 5748 5737 5727 5717 5707 5695 5684 5672 5660 5651
5862 5866 5868 5870 5870 5872 5872 5872 5871 5870 5868 5866 5865 5864 5863 5860 5855 5850 5845 5842 5837 5831 5826 5819 5813 5808 5804 5798 5793 5787 5780 5772 5763 5754 5744 5733 5723 5714 5703 5692 5681 5669 5658 5647
5859 5863 5866 5867 5868 5869 5869 5870 5869 5868 5865 5864 5862 5860 5860 5856 5851 5846 5843 5839 5834 5828 5822 5815 5810 5805 5802 5797 5791 5785 5777 5768 5760 5750 5740 5730 5720 5710 5700 5690 5679 5668 5658 5646
5856 5859 5863 5864 5865 5867 5867 5867 5866 5864 5862 5860 5858 5858 5856 5851 5847 5843 5840 5835 5830 5824 5818 5812 5808 5804 5800 5795 5789 5782 5773 5765 5756 5746 5736 5727 5717 5707 5698 5689 5679 5669 5659 5647
5853 5856 5859 5861 5863 5864 5864 5864 5864 5862 5860 5857 5855 5855 5852 5849 5845 5841 5837 5832 5827 5821 5814 5810 5807 5803 5799 5793 5787 5778 5770 5762 5753 5743 5734 5725 5715 5705 5696 5688 5679 5670 5661 5651
5851 5853 5856 5858 5861 5862 5862 5862 5860 5858 5856 5854 5851 5850 5848 5846 5842 5837 5833 5828 5822 5817 5812 5809 5806 5802 5797 5792 5784 5776 5768 5760 5751 5743 5734 5724 5713 5704 5696 5688 5680 5671 5663 5654
5847 5850 5852 5855 5857 5859 5858 5858 5857 5855 5852 5849 5847 5846 5845 5843 5839 5834 5830 5824 5819 5815 5811 5808 5804 5800 5795 5789 5781 5774 5767 5759 5751 5742 5733 5723 5713 5704 5697 5690 5682 5673 5666 5657
5844 5847 5850 5852 5853 5854 5853 5853 5852 5850 5847 5845 5844 5843 5842 5840 5836 5831 5826 5822 5819 5814 5809 5807 5803 5798 5793 5787 5780 5773 5766 5759 5751 5742 5733 5723 5713 5704 5698 5692 5684 5676 5669 5661
5842 5845 5848 5849 5850 5850 5849 5848 5847 5845 5843 5842 5841 5840 5839 5837 5833 5829 5824 5821 5817 5812 5808 5805 5801 5796 5791 5785 5779 5772 5766 5759 5751 5743 5734 5725 5715 5707 5701 5694 5687 5679 5671 5664
5839 5842 5844 5846 5847 5847 5847 5845 5843 5842 5840 5839 5839 5838 5836 5834 5830 5826 5822 5819 5815 5810 5806 5803 5798 5794 5790 5784 5778 5772 5765 5758 5752 5744 5736 5727 5718 5710 5703 5696 5689 5682 5675 5668
5834 5838 5840 5841 5843 5844 5844 5841 5839 5838 5837 5836 5836 5835 5833 5831 5827 5823 5820 5817 5812 5808 5804 5799 5796 5792 5788 5783 5776 5770 5764 5758 5752 5745 5737 5729 5721 5713 5706 5699 5692 5685 5679 5672
5830 5833 5834 5837 5839 5842 5840 5837 5837 5835 5834 5834 5833 5831 5829 5827 5824 5821 5818 5814 5810 5805 5801 5797 5794 5791 5786 5780 5774 5769 5764 5758 5751 5744 5738 5731 5724 5716 5708 5701 5694 5688 5681 5675
5825 5828 5832 5834 5835 5837 5836 5833 5833 5832 5832 5831 5829 5827 5826 5824 5821 5818 5816 5812 5808 5804 5800 5796 5792 5788 5784 5779 5773 5769 5763 5757 5751 5745 5739 5732 5725 5718 5710 5703 5696 5690 5684 5678
5823 5826 5828 5830 5832 5833 5833 5831 5830 5830 5832 5827 5826 5824 5824 5821 5819 5815 5813 5809 5806 5802 5798 5794 5789 5785 5782 5778 5772 5767 5762 5757 5751 5745 5739 5733 5727 5719 5712 5705 5699 5693 5686 5680
5822 5824 5825 5826 5828 5829 5828 5828 5827 5826 5825 5824 5823 5822 5821 5819 5816 5813 5810 5807 5804 5800 5796 5792 5787 5782 5779 5776 5771 5765 5761 5756 5750 5744 5739 5733 5727 5721 5715 5708 5701 5694 5688 5682
5819 5821 5822 5823 5823 5823 5824 5824 5822 5821 5821 5821 5820 5819 5818 5816 5813 5810 5808 5805 5802 5798 5794 5790 5785 5781 5777 5773 5768 5763 5759 5754 5749 5743 5738 5733 5727 5722 5716 5709 5703 5697 5690 5683
5815 5816 5817 5818 5818 5818 5819 5819 5818 5818 5817 5817 5816 5815 5815 5813 5810 5808 5806 5802 5799 5795 5792 5788 5784 5779 5775 5770 5766 5761 5757 5752 5747 5742 5737 5732 5727 5721 5715 5709 5704 5698 5692 5686
5810 5810 5811 5813 5813 5813 5814 5814 5814 5814 5813 5814 5812 5812 5812 5810 5807 5804 5802 5800 5797 5794 5790 5786 5782 5777 5773 5768 5764 5759 5755 5750 5746 5741 5736 5731 5725 5720 5715 5709 5704 5698 5693 5687
5804 5804 5807 5808 5809 5809 5809 5808 5809 5810 5810 5810 5809 5809 5808 5806 5804 5802 5799 5797 5795 5792 5788 5784 5780 5775 5771 5767 5763 5758 5753 5749 5744 5740 5735 5730 5724 5719 5713 5708 5703 5698 5693 5688